View from above orbital plane
|
View from above satellite
|
Ground track
|
The orbit data is extracted from the following two-line orbital elements,
1 40012U 14033C 22182.49524141 .00000581 00000-0 91307-4 0 9991
2 40012 97.6616 9.7082 0058869 113.0692 247.6739 14.74936376432050
Epoch (UTC): | 01 July 2022 11:53:08 |
Eccentricity: | 0.0058869 |
inclination: | 97.6616° |
perigee height: | 604 km |
apogee height: | 687 km |
right ascension of ascending node: | 9.7082° |
argument of perigee: | 113.0692° |
revolutions per day: | 14.74936376 |
mean anomaly at epoch: | 247.6739° |
orbit number at epoch: | 43205 |
The dashed part of the orbit path shows where the satellite is in the earth's shadow,
|
|